Weather observations for the past three days for
Anchorage, Lake Hood Seaplane Base
Metric (Imperial)
Date Time (akdt) Wind (kph) Vis. (km) Weather Sky Cond. Temperature (ºC) Relative Humidity Wind Chill (°C) Heat Index (°C) Pressure Precipitation (cm)
Air Dwpt 6 hour altimeter (cm) sea level (mb) 1 hr 3 hr 6 hr
Max. Min.
25 00:53 Calm 16.09 Partly Cloudy SCT048 14.4 10.6 78% 76.33 1017.7
24 23:53 Calm 16.09 Partly Cloudy FEW055 SCT120 13.9 10.6 81% 76.3 1017.4
24 22:53 NE 11 16.09 Overcast BKN050 BKN060 OVC110 14.4 11.7 84% 76.25 1016.7
24 21:53 W 15 16.09 Fair CLR 17.8 10.6 20.6 16.1 63% 76.2 1015.9
24 20:53 W 7 16.09 Fair CLR 17.8 11.1 65% 76.17 1015.6
24 19:53 W 15 16.09 Fair CLR 20 11.1 57% 76.15 1015.1
24 18:53 W 15 16.09 Fair CLR 18.9 11.7 63% 76.12 1015.0
24 17:53 W 15 16.09 Fair CLR 18.3 11.7 66% 76.12 1014.9
24 16:53 NW 17 16.09 Fair CLR 18.3 11.7 66% 76.1 1014.8
24 15:53 W 19 16.09 Fair CLR 18.3 11.1 21.1 17.8 63% 76.12 1014.9
24 14:53 W 19 16.09 Fair CLR 19.4 11.1 59% 76.12 1014.9
24 13:53 W 15 16.09 Mostly Cloudy BKN070 19.4 10.6 57% 76.12 1014.9
24 12:53 NW 11 16.09 Partly Cloudy SCT070 19.4 10.6 57% 76.12 1014.8
24 11:53 Vrbl 11 16.09 Fair CLR 20 10 53% 76.1 1014.5
24 10:53 Calm 16.09 Partly Cloudy SCT070 18.9 10 56% 76.1 1014.5
24 09:53 N 9 16.09 Fair CLR 17.8 11.1 18.9 14.4 65% 76.1 1014.4
24 08:53 SE 9 16.09 Fair CLR 17.8 10 60% 76.07 1014.0
24 07:53 Vrbl 11 16.09 Fair CLR 16.7 9.4 62% 76.05 1013.7
24 06:53 S 13 16.09 Fair CLR 15 9.4 69% 76 1013.3
24 05:53 S 13 16.09 Fair CLR 14.4 8.9 70% 75.97 1012.9
24 04:53 Vrbl 11 16.09 Fair CLR 15 8.9 67% 75.95 1012.5
24 03:53 S 9 16.09 Fair CLR 15 9.4 20 15 69% 75.92 1012.3
24 02:53 SW 9 16.09 Fair CLR 15 10.6 75% 75.92 1012.0
24 01:53 S 19 G 33 16.09 Fair CLR 16.1 10 67% 75.84 1011.2
24 00:53 S 17 G 28 16.09 Fair CLR 17.2 10 63% 75.79 1010.6
23 23:53 S 11 16.09 Fair CLR 18.3 9.4 56% 75.74 1009.9
23 22:53 S 11 G 28 16.09 Fair CLR 18.9 9.4 54% 75.69 1009.1
23 21:53 S 19 G 33 16.09 Fair CLR 20 10 26.1 20 53% 75.64 1008.3
23 20:53 S 9 16.09 Fair CLR 21.7 10 47% 75.59 1007.8
23 19:53 S 24 G 37 16.09 Fair CLR 23.3 8.3 38% 75.57 1007.5
23 18:53 S 9 16.09 Light Rain FEW050 SCT070 BKN110 21.7 12.8 57% 75.51 1006.9
23 17:53 W 9 16.09 Fair CLR 25.6 12.2 43% 26 75.51 1006.7
23 16:53 Calm 16.09 Fair CLR 25.6 10 37% 26 75.49 1006.6
23 15:53 Vrbl 6 16.09 Fair CLR 24.4 10.6 25 18.9 42% 25 75.49 1006.4
23 14:53 SW 9 16.09 Fair CLR 23.9 11.7 46% 25 75.49 1006.4
23 13:53 W 6 16.09 Fair CLR 23.3 11.7 48% 75.49 1006.5
23 12:53 Calm 16.09 Fair CLR 22.2 10.6 48% 75.51 1006.6
23 11:53 Vrbl 7 16.09 Fair CLR 20 9.4 51% 75.51 1006.8
23 10:53 Vrbl 6 16.09 Fair CLR 20.6 9.4 49% 75.49 1006.5
23 09:53 W 7 16.09 Fair CLR 18.9 9.4 19.4 15 54% 75.49 1006.4
23 08:53 Calm 16.09 Fair CLR 18.3 9.4 56% 75.51 1006.6
23 07:53 SW 7 16.09 Fair CLR 18.3 9.4 56% 75.51 1006.6
23 06:53 SW 6 16.09 Fair CLR 17.8 10 60% 75.51 1006.6
23 05:53 N 6 16.09 Fair CLR 15.6 11.1 75% 75.49 1006.5
23 04:53 S 7 16.09 Fair CLR 16.7 8.9 60% 75.49 1006.3
23 03:53 Calm 16.09 Fair CLR 16.7 9.4 21.7 16.1 62% 75.46 1006.2
23 02:53 S 9 16.09 Fair CLR 17.8 8.9 56% 75.46 1006.2
23 01:53 S 9 16.09 Fair CLR 18.3 9.4 56% 75.49 1006.3
23 00:53 S 9 16.09 Fair CLR 18.3 9.4 56% 75.49 1006.3
22 23:53 Calm 16.09 Fair CLR 20 7.2 44% 75.46 1006.1
22 22:53 SW 13 16.09 Fair CLR 20 7.2 44% 75.46 1005.9
22 21:53 W 15 16.09 Mostly Cloudy BKN120 21.1 6.1 26.1 21.1 38% 75.44 1005.6
22 20:53 W 19 16.09 Fair CLR 21.7 7.2 39% 75.44 1005.6
22 19:53 W 15 16.09 Fair CLR 23.9 8.3 37% 25 75.41 1005.5
22 18:53 W 15 16.09 Fair CLR 23.9 8.9 39% 25 75.44 1005.7
22 17:53 W 15 16.09 A Few Clouds FEW095 24.4 9.4 39% 25 75.44 1005.9
22 16:53 W 17 16.09 Fair CLR 25 11.1 42% 26 75.44 1005.9
22 15:53 SW 11 16.09 Fair CLR 24.4 11.1 24.4 17.8 43% 26 75.46 1006.2
22 14:53 Calm 16.09 Fair CLR 23.9 9.4 40% 25 75.49 1006.4
22 13:53 N 7 16.09 Fair CLR 22.8 8.9 41% 75.51 1006.7
22 12:53 W 6 16.09 Fair CLR 21.7 7.8 41% 75.51 1006.8
22 11:53 W 6 16.09 Fair CLR 19.4 7.2 45% 75.54 1007.2
22 10:53 NW 7 16.09 Fair CLR 18.3 8.9 54% 75.57 1007.5
22 09:53 Calm 16.09 Fair CLR 17.8 8.9 17.8 12.8 56% 75.57 1007.6
22 08:53 Calm 16.09 Fair CLR 16.7 7.8 56% 75.59 1007.7
22 07:53 Calm 16.09 Fair CLR 15.6 8.3 62% 75.59 1007.9
22 06:53 N 6 16.09 Fair CLR 13.9 10 78% 75.62 1008.0
22 05:53 N 6 16.09 Fair CLR 12.8 8.9 77% 75.59 1007.8
22 04:53 Calm 16.09 Fair CLR 13.3 6.7 65% 75.59 1007.9
22 03:53 Calm 16.09 Fair CLR 13.3 7.8 17.8 13.3 70% 75.59 1007.9
22 02:53 Calm 16.09 Fair CLR 14.4 8.3 67% 75.62 1007.9
Date Time (akdt) Wind (kph) Vis. (km) Weather Sky Cond. Air Dwpt Max. Min. Relative Humidity Wind Chill (°C) Heat Index (°C) altimeter (cm) sea level (mb) 1 hr 3 hr 6 hr
6 hour
Temperature (ºC) Pressure Precipitation (cm)